Location: Bailleul
(50.3375°N, 2.8513°E)
Time: 16:59:21
(UTC+00:00)

Helios 1A - Pass Details

Date: 19 April 2021
Orbit: 586 x 600 km, 98.2° (Epoch: 05 May)

Event Time Altitude Azimuth Distance (km) Brightness Sun altitude
Exits shadow 23:54:18 33° 53° (NE) 1,013 4.4 -28.1°
Drops below altitude 10° 23:57:40 10° 2° (N) 1,940 6.6 -28.1°
Sets 23:59:58 0° 353° (N) 2,844 7.7 -28.1°
